Year,Month,Day,Hour,Minute,Value (Times are PST for temperature in C)
2008,02,23,00,00,5.10
2008,02,23,00,01,5.10
2008,02,23,00,02,5.10
2008,02,23,00,03,5.10
2008,02,23,00,04,5.10
2008,02,23,00,05,5.10
2008,02,23,00,06,5.10
2008,02,23,00,07,5.10
2008,02,23,00,08,5.10
2008,02,23,00,09,5.10
2008,02,23,00,10,5.10
2008,02,23,00,11,5.10
2008,02,23,00,12,5.10
2008,02,23,00,13,5.10
2008,02,23,00,14,5.10
2008,02,23,00,15,5.10
2008,02,23,00,16,5.20
2008,02,23,00,17,5.20
2008,02,23,00,18,5.20
2008,02,23,00,19,5.20
2008,02,23,00,20,5.20
2008,02,23,00,21,5.20
2008,02,23,00,22,5.30
2008,02,23,00,23,5.30
2008,02,23,00,24,5.30
2008,02,23,00,25,5.30
2008,02,23,00,26,5.30
2008,02,23,00,27,5.30
2008,02,23,00,28,5.30
2008,02,23,00,29,5.30
2008,02,23,00,30,5.40
2008,02,23,00,31,5.40
2008,02,23,00,32,5.40
2008,02,23,00,33,5.50
2008,02,23,00,34,5.50
2008,02,23,00,35,5.40
2008,02,23,00,36,5.30
2008,02,23,00,37,5.30
2008,02,23,00,38,5.20
2008,02,23,00,39,5.10
2008,02,23,00,40,5.10
2008,02,23,00,41,5.10
2008,02,23,00,42,5.10
2008,02,23,00,43,5.10
2008,02,23,00,44,5.10
2008,02,23,00,45,4.90
2008,02,23,00,46,4.90
2008,02,23,00,47,4.90
2008,02,23,00,48,4.90
2008,02,23,00,49,4.90
2008,02,23,00,50,4.90
2008,02,23,00,51,4.90
2008,02,23,00,52,4.90
2008,02,23,00,53,4.80
2008,02,23,00,54,4.80
2008,02,23,00,55,4.70
2008,02,23,00,56,4.60
2008,02,23,00,57,4.60
2008,02,23,00,58,4.60
2008,02,23,00,59,4.50
2008,02,23,01,00,4.40
2008,02,23,01,01,4.40
2008,02,23,01,02,4.30
2008,02,23,01,03,4.30
2008,02,23,01,04,4.20
2008,02,23,01,05,4.20
2008,02,23,01,06,4.20
2008,02,23,01,07,4.20
2008,02,23,01,08,4.20
2008,02,23,01,09,4.20
2008,02,23,01,10,4.20
2008,02,23,01,11,4.20
2008,02,23,01,12,4.10
2008,02,23,01,13,4.10
2008,02,23,01,14,4.10
2008,02,23,01,15,4.10
2008,02,23,01,16,4.10
2008,02,23,01,17,4.00
2008,02,23,01,18,4.00
2008,02,23,01,19,4.00
2008,02,23,01,20,4.00
2008,02,23,01,21,4.00
2008,02,23,01,22,4.00
2008,02,23,01,23,4.10
2008,02,23,01,24,4.10
2008,02,23,01,25,4.10
2008,02,23,01,26,4.20
2008,02,23,01,27,4.20
2008,02,23,01,28,4.20
2008,02,23,01,29,4.20
2008,02,23,01,30,4.30
2008,02,23,01,31,4.30
2008,02,23,01,32,4.30
2008,02,23,01,33,4.20
2008,02,23,01,34,4.20
2008,02,23,01,35,4.20
2008,02,23,01,36,4.20
2008,02,23,01,37,4.20
2008,02,23,01,38,4.20
2008,02,23,01,39,4.20
2008,02,23,01,40,4.10
2008,02,23,01,41,4.10
2008,02,23,01,42,4.10
2008,02,23,01,43,4.10
2008,02,23,01,44,4.10
2008,02,23,01,45,4.10
2008,02,23,01,46,4.10
2008,02,23,01,47,4.10
2008,02,23,01,48,4.10
2008,02,23,01,49,4.10
2008,02,23,01,50,4.10
2008,02,23,01,51,4.10
2008,02,23,01,52,4.10
2008,02,23,01,53,4.10
2008,02,23,01,54,4.10
2008,02,23,01,55,4.10
2008,02,23,01,56,4.20
2008,02,23,01,57,4.20
2008,02,23,01,58,4.20
2008,02,23,01,59,4.20
2008,02,23,02,00,4.20
2008,02,23,02,01,4.20
2008,02,23,02,02,4.20
2008,02,23,02,03,4.20
2008,02,23,02,04,4.20
2008,02,23,02,05,4.20
2008,02,23,02,06,4.20
2008,02,23,02,07,4.20
2008,02,23,02,08,4.20
2008,02,23,02,09,4.20
2008,02,23,02,10,4.20
2008,02,23,02,11,4.20
2008,02,23,02,12,4.30
2008,02,23,02,13,4.30
2008,02,23,02,14,4.30
2008,02,23,02,15,4.20
2008,02,23,02,16,4.20
2008,02,23,02,17,4.20
2008,02,23,02,18,4.20
2008,02,23,02,19,4.20
2008,02,23,02,20,4.20
2008,02,23,02,21,4.20
2008,02,23,02,22,4.20
2008,02,23,02,23,4.20
2008,02,23,02,24,4.20
2008,02,23,02,25,4.30
2008,02,23,02,26,4.30
2008,02,23,02,27,4.30
2008,02,23,02,28,4.40
2008,02,23,02,29,4.40
2008,02,23,02,30,4.50
2008,02,23,02,31,4.50
2008,02,23,02,32,4.60
2008,02,23,02,33,4.60
2008,02,23,02,34,4.60
2008,02,23,02,35,4.60
2008,02,23,02,36,4.70
2008,02,23,02,37,4.70
2008,02,23,02,38,4.70
2008,02,23,02,39,4.80
2008,02,23,02,40,4.80
2008,02,23,02,41,4.80
2008,02,23,02,42,4.80
2008,02,23,02,43,4.80
2008,02,23,02,44,4.80
2008,02,23,02,45,4.80
2008,02,23,02,46,4.80
2008,02,23,02,47,4.80
2008,02,23,02,48,4.80
2008,02,23,02,49,4.80
2008,02,23,02,50,4.80
2008,02,23,02,51,4.90
2008,02,23,02,52,4.90
2008,02,23,02,53,4.90
2008,02,23,02,54,4.90
2008,02,23,02,55,4.90
2008,02,23,02,56,4.90
2008,02,23,02,57,4.90
2008,02,23,02,58,4.90
2008,02,23,02,59,4.90
2008,02,23,03,00,4.90
2008,02,23,03,01,4.90
2008,02,23,03,02,4.90
2008,02,23,03,03,5.10
2008,02,23,03,04,5.10
2008,02,23,03,05,5.10
2008,02,23,03,06,5.10
2008,02,23,03,07,5.10
2008,02,23,03,08,5.10
2008,02,23,03,09,5.10
2008,02,23,03,10,5.10
2008,02,23,03,11,5.10
2008,02,23,03,12,5.20
2008,02,23,03,13,5.30
2008,02,23,03,14,5.30
2008,02,23,03,15,5.40
2008,02,23,03,16,5.50
2008,02,23,03,17,5.50
2008,02,23,03,18,5.60
2008,02,23,03,19,5.60
2008,02,23,03,20,5.70
2008,02,23,03,21,5.70
2008,02,23,03,22,5.70
2008,02,23,03,23,5.70
2008,02,23,03,24,5.80
2008,02,23,03,25,5.80
2008,02,23,03,26,5.80
2008,02,23,03,27,5.80
2008,02,23,03,28,5.80
2008,02,23,03,29,5.80
2008,02,23,03,30,5.90
2008,02,23,03,31,5.90
2008,02,23,03,32,5.90
2008,02,23,03,33,5.90
2008,02,23,03,34,6.00
2008,02,23,03,35,6.00
2008,02,23,03,36,6.00
2008,02,23,03,37,6.10
2008,02,23,03,38,6.10
2008,02,23,03,39,6.10
2008,02,23,03,40,6.10
2008,02,23,03,41,6.10
2008,02,23,03,42,6.10
2008,02,23,03,43,6.10
2008,02,23,03,44,6.10
2008,02,23,03,45,6.10
2008,02,23,03,46,6.10
2008,02,23,03,47,6.20
2008,02,23,03,48,6.20
2008,02,23,03,49,6.20
2008,02,23,03,50,6.20
2008,02,23,03,51,6.20
2008,02,23,03,52,6.20
2008,02,23,03,53,6.20
2008,02,23,03,54,6.20
2008,02,23,03,55,6.20
2008,02,23,03,56,6.20
2008,02,23,03,57,6.20
2008,02,23,03,58,6.20
2008,02,23,03,59,6.20
2008,02,23,04,00,6.20
2008,02,23,04,01,6.20
2008,02,23,04,02,6.20
2008,02,23,04,03,6.20
2008,02,23,04,04,6.20
2008,02,23,04,05,6.20
2008,02,23,04,06,6.20
2008,02,23,04,07,6.20
2008,02,23,04,08,6.20
2008,02,23,04,09,6.20
2008,02,23,04,10,6.20
2008,02,23,04,11,6.20
2008,02,23,04,12,6.20
2008,02,23,04,13,6.20
2008,02,23,04,14,6.20
2008,02,23,04,15,6.20
2008,02,23,04,16,6.20
2008,02,23,04,17,6.20
2008,02,23,04,18,6.20
2008,02,23,04,19,6.20
2008,02,23,04,20,6.20
2008,02,23,04,21,6.20
2008,02,23,04,22,6.20
2008,02,23,04,23,6.20
2008,02,23,04,24,6.20
2008,02,23,04,25,6.20
2008,02,23,04,26,6.20
2008,02,23,04,27,6.20
2008,02,23,04,28,6.20
2008,02,23,04,29,6.30
2008,02,23,04,30,6.30
2008,02,23,04,31,6.30
2008,02,23,04,32,6.30
2008,02,23,04,33,6.30
2008,02,23,04,34,6.30
2008,02,23,04,35,6.30
2008,02,23,04,36,6.30
2008,02,23,04,37,6.30
2008,02,23,04,38,6.30
2008,02,23,04,39,6.30
2008,02,23,04,40,6.30
2008,02,23,04,41,6.30
2008,02,23,04,42,6.30
2008,02,23,04,43,6.30
2008,02,23,04,44,6.20
2008,02,23,04,45,6.20
2008,02,23,04,46,6.20
2008,02,23,04,47,6.20
2008,02,23,04,48,6.20
2008,02,23,04,49,6.20
2008,02,23,04,50,6.20
2008,02,23,04,51,6.20
2008,02,23,04,52,6.20
2008,02,23,04,53,6.20
2008,02,23,04,54,6.20
2008,02,23,04,55,6.20
2008,02,23,04,56,6.20
2008,02,23,04,57,6.20
2008,02,23,04,58,6.20
2008,02,23,04,59,6.20
2008,02,23,05,00,6.20
2008,02,23,05,01,6.20
2008,02,23,05,02,6.20
2008,02,23,05,03,6.20
2008,02,23,05,04,6.20
2008,02,23,05,05,6.20
2008,02,23,05,06,6.20
2008,02,23,05,07,6.20
2008,02,23,05,08,6.20
2008,02,23,05,09,6.20
2008,02,23,05,10,6.20
2008,02,23,05,11,6.20
2008,02,23,05,12,6.20
2008,02,23,05,13,6.20
2008,02,23,05,14,6.20
2008,02,23,05,15,6.20
2008,02,23,05,16,6.20
2008,02,23,05,17,6.20
2008,02,23,05,18,6.20
2008,02,23,05,19,6.20
2008,02,23,05,20,6.20
2008,02,23,05,21,6.20
2008,02,23,05,22,6.20
2008,02,23,05,23,6.10
2008,02,23,05,24,6.10
2008,02,23,05,25,6.10
2008,02,23,05,26,6.10
2008,02,23,05,27,6.10
2008,02,23,05,28,6.10
2008,02,23,05,29,6.10
2008,02,23,05,30,6.10
2008,02,23,05,31,6.10
2008,02,23,05,32,6.10
2008,02,23,05,33,6.10
2008,02,23,05,34,6.10
2008,02,23,05,35,6.10
2008,02,23,05,36,6.10
2008,02,23,05,37,6.10
2008,02,23,05,38,6.10
2008,02,23,05,39,6.10
2008,02,23,05,40,6.10
2008,02,23,05,41,6.10
2008,02,23,05,42,6.10
2008,02,23,05,43,6.10
2008,02,23,05,44,6.10
2008,02,23,05,45,6.10
2008,02,23,05,46,6.10
2008,02,23,05,47,6.10
2008,02,23,05,48,6.10
2008,02,23,05,49,6.10
2008,02,23,05,50,6.10
2008,02,23,05,51,6.10
2008,02,23,05,52,6.10
2008,02,23,05,53,6.10
2008,02,23,05,54,6.10
2008,02,23,05,55,6.10
2008,02,23,05,56,6.10
2008,02,23,05,57,6.10
2008,02,23,05,58,6.10
2008,02,23,05,59,6.10
2008,02,23,06,00,6.10
2008,02,23,06,01,6.10
2008,02,23,06,02,6.10
2008,02,23,06,03,6.10
2008,02,23,06,04,6.10
2008,02,23,06,05,6.10
2008,02,23,06,06,6.10
2008,02,23,06,07,6.10
2008,02,23,06,08,6.10
2008,02,23,06,09,6.10
2008,02,23,06,10,6.10
2008,02,23,06,11,6.10
2008,02,23,06,12,6.10
2008,02,23,06,13,6.10
2008,02,23,06,14,6.10
2008,02,23,06,15,6.10
2008,02,23,06,16,6.10
2008,02,23,06,17,6.10
2008,02,23,06,18,6.00
2008,02,23,06,19,6.00
2008,02,23,06,20,6.00
2008,02,23,06,21,6.00
2008,02,23,06,22,6.00
2008,02,23,06,23,6.00
2008,02,23,06,24,6.00
2008,02,23,06,25,6.00
2008,02,23,06,26,6.00
2008,02,23,06,27,6.00
2008,02,23,06,28,6.00
2008,02,23,06,29,6.00
2008,02,23,06,30,6.00
2008,02,23,06,31,6.00
2008,02,23,06,32,6.00
2008,02,23,06,33,6.00
2008,02,23,06,34,6.00
2008,02,23,06,35,6.00
2008,02,23,06,36,6.00
2008,02,23,06,37,6.00
2008,02,23,06,38,6.00
2008,02,23,06,39,6.00
2008,02,23,06,40,6.00
2008,02,23,06,41,6.00
2008,02,23,06,42,6.00
2008,02,23,06,43,6.00
2008,02,23,06,44,6.00
2008,02,23,06,45,6.00
2008,02,23,06,46,6.00
2008,02,23,06,47,6.00
2008,02,23,06,48,6.00
2008,02,23,06,49,6.00
2008,02,23,06,50,6.00
2008,02,23,06,51,6.00
2008,02,23,06,52,6.00
2008,02,23,06,53,6.00
2008,02,23,06,54,6.00
2008,02,23,06,55,6.00
2008,02,23,06,56,6.00
2008,02,23,06,57,6.00
2008,02,23,06,58,6.00
2008,02,23,06,59,6.00
2008,02,23,07,00,6.00
2008,02,23,07,01,6.00
2008,02,23,07,02,6.00
2008,02,23,07,03,6.00
2008,02,23,07,04,6.00
2008,02,23,07,05,6.00
2008,02,23,07,06,6.00
2008,02,23,07,07,6.00
2008,02,23,07,08,6.00
2008,02,23,07,09,6.00
2008,02,23,07,10,6.00
2008,02,23,07,11,6.00
2008,02,23,07,12,6.00
2008,02,23,07,13,6.10
2008,02,23,07,14,6.10
2008,02,23,07,15,6.10
2008,02,23,07,16,6.10
2008,02,23,07,17,6.10
2008,02,23,07,18,6.10
2008,02,23,07,19,6.10
2008,02,23,07,20,6.10
2008,02,23,07,21,6.10
2008,02,23,07,22,6.10
2008,02,23,07,23,6.10
2008,02,23,07,24,6.10
2008,02,23,07,25,6.10
2008,02,23,07,26,6.10
2008,02,23,07,27,6.10
2008,02,23,07,28,6.10
2008,02,23,07,29,6.10
2008,02,23,07,30,6.10
2008,02,23,07,31,6.10
2008,02,23,07,32,6.10
2008,02,23,07,33,6.10
2008,02,23,07,34,6.10
2008,02,23,07,35,6.10
2008,02,23,07,36,6.10
2008,02,23,07,37,6.10
2008,02,23,07,38,6.10
2008,02,23,07,39,6.10
2008,02,23,07,40,6.10
2008,02,23,07,41,6.10
2008,02,23,07,42,6.10
2008,02,23,07,43,6.00
2008,02,23,07,44,6.00
2008,02,23,07,45,6.00
2008,02,23,07,46,6.00
2008,02,23,07,47,6.00
2008,02,23,07,48,6.00
2008,02,23,07,49,5.90
2008,02,23,07,50,5.90
2008,02,23,07,51,5.90
2008,02,23,07,52,5.80
2008,02,23,07,53,5.80
2008,02,23,07,54,5.80
2008,02,23,07,55,5.80
2008,02,23,07,56,5.70
2008,02,23,07,57,5.70
2008,02,23,07,58,5.70
2008,02,23,07,59,5.70
2008,02,23,08,00,5.70
2008,02,23,08,01,5.70
2008,02,23,08,02,5.70
2008,02,23,08,03,5.70
2008,02,23,08,04,5.70
2008,02,23,08,05,5.70
2008,02,23,08,06,5.70
2008,02,23,08,07,5.70
2008,02,23,08,08,5.70
2008,02,23,08,09,5.70
2008,02,23,08,10,5.70
2008,02,23,08,11,5.80
2008,02,23,08,12,5.80
2008,02,23,08,13,5.90
2008,02,23,08,14,6.00
2008,02,23,08,15,6.10
2008,02,23,08,16,6.20
2008,02,23,08,17,6.20
2008,02,23,08,18,6.20
2008,02,23,08,19,6.30
2008,02,23,08,20,6.40
2008,02,23,08,21,6.60
2008,02,23,08,22,6.60
2008,02,23,08,23,6.70
2008,02,23,08,24,6.70
2008,02,23,08,25,6.80
2008,02,23,08,26,6.80
2008,02,23,08,27,6.80
2008,02,23,08,28,6.90
2008,02,23,08,29,6.90
2008,02,23,08,30,7.00
2008,02,23,08,31,7.00
2008,02,23,08,32,7.00
2008,02,23,08,33,7.00
2008,02,23,08,34,7.00
2008,02,23,08,35,7.10
2008,02,23,08,36,7.10
2008,02,23,08,37,7.10
2008,02,23,08,38,7.00
2008,02,23,08,39,7.00
2008,02,23,08,40,6.90
2008,02,23,08,41,6.90
2008,02,23,08,42,6.90
2008,02,23,08,43,6.90
2008,02,23,08,44,6.90
2008,02,23,08,45,6.90
2008,02,23,08,46,6.90
2008,02,23,08,47,7.00
2008,02,23,08,48,7.00
2008,02,23,08,49,7.00
2008,02,23,08,50,7.00
2008,02,23,08,51,7.00
2008,02,23,08,52,7.10
2008,02,23,08,53,7.10
2008,02,23,08,54,7.10
2008,02,23,08,55,7.20
2008,02,23,08,56,7.20
2008,02,23,08,57,7.20
2008,02,23,08,58,7.10
2008,02,23,08,59,7.10
2008,02,23,09,00,7.00
2008,02,23,09,01,7.00
2008,02,23,09,02,7.00
2008,02,23,09,03,7.00
2008,02,23,09,04,6.90
2008,02,23,09,05,6.90
2008,02,23,09,06,6.90
2008,02,23,09,07,6.80
2008,02,23,09,08,6.80
2008,02,23,09,09,6.80
2008,02,23,09,10,6.70
2008,02,23,09,11,6.80
2008,02,23,09,12,6.80
2008,02,23,09,13,6.80
2008,02,23,09,14,6.80
2008,02,23,09,15,6.80
2008,02,23,09,16,6.80
2008,02,23,09,17,6.80
2008,02,23,09,18,6.80
2008,02,23,09,19,6.70
2008,02,23,09,20,6.70
2008,02,23,09,21,6.70
2008,02,23,09,22,6.70
2008,02,23,09,23,6.70
2008,02,23,09,24,6.70
2008,02,23,09,25,6.60
2008,02,23,09,26,6.60
2008,02,23,09,27,6.60
2008,02,23,09,28,6.60
2008,02,23,09,29,6.60
2008,02,23,09,30,6.60
2008,02,23,09,31,6.60
2008,02,23,09,32,6.70
2008,02,23,09,33,6.70
2008,02,23,09,34,6.70
2008,02,23,09,35,6.70
2008,02,23,09,36,6.70
2008,02,23,09,37,6.70
2008,02,23,09,38,6.70
2008,02,23,09,39,6.70
2008,02,23,09,40,6.70
2008,02,23,09,41,6.70
2008,02,23,09,42,6.70
2008,02,23,09,43,6.70
2008,02,23,09,44,6.70
2008,02,23,09,45,6.70
2008,02,23,09,46,6.70
2008,02,23,09,47,6.70
2008,02,23,09,48,6.70
2008,02,23,09,49,6.70
2008,02,23,09,50,6.70
2008,02,23,09,51,6.70
2008,02,23,09,52,6.70
2008,02,23,09,53,6.70
2008,02,23,09,54,6.70
2008,02,23,09,55,6.70
2008,02,23,09,56,6.70
2008,02,23,09,57,6.70
2008,02,23,09,58,6.70
2008,02,23,09,59,6.70
2008,02,23,10,00,6.70
2008,02,23,10,01,6.70
2008,02,23,10,02,6.70
2008,02,23,10,03,6.70
2008,02,23,10,04,6.70
2008,02,23,10,05,6.70
2008,02,23,10,06,6.70
2008,02,23,10,07,6.70
2008,02,23,10,08,6.70
2008,02,23,10,09,6.70
2008,02,23,10,10,6.70
2008,02,23,10,11,6.80
2008,02,23,10,12,6.80
2008,02,23,10,13,6.80
2008,02,23,10,14,6.80
2008,02,23,10,15,6.80
2008,02,23,10,16,6.80
2008,02,23,10,17,6.80
2008,02,23,10,18,6.80
2008,02,23,10,19,6.80
2008,02,23,10,20,6.80
2008,02,23,10,21,6.70
2008,02,23,10,22,6.70
2008,02,23,10,23,6.70
2008,02,23,10,24,6.80
2008,02,23,10,25,6.80
2008,02,23,10,26,6.80
2008,02,23,10,27,6.80
2008,02,23,10,28,6.90
2008,02,23,10,29,6.90
2008,02,23,10,30,6.90
2008,02,23,10,31,6.90
2008,02,23,10,32,6.80
2008,02,23,10,33,6.80
2008,02,23,10,34,6.80
2008,02,23,10,35,6.80
2008,02,23,10,36,6.80
2008,02,23,10,37,6.80
2008,02,23,10,38,6.80
2008,02,23,10,39,6.80
2008,02,23,10,40,6.80
2008,02,23,10,41,6.80
2008,02,23,10,42,6.80
2008,02,23,10,43,6.80
2008,02,23,10,44,6.80
2008,02,23,10,45,6.80
2008,02,23,10,46,6.80
2008,02,23,10,47,6.80
2008,02,23,10,48,6.80
2008,02,23,10,49,6.80
2008,02,23,10,50,6.80
2008,02,23,10,51,6.80
2008,02,23,10,52,6.90
2008,02,23,10,53,6.80
2008,02,23,10,54,6.80
2008,02,23,10,55,6.80
2008,02,23,10,56,6.80
2008,02,23,10,57,6.80
2008,02,23,10,58,6.80
2008,02,23,10,59,6.80
2008,02,23,11,00,6.80
2008,02,23,11,01,6.80
2008,02,23,11,02,6.80
2008,02,23,11,03,6.80
2008,02,23,11,04,6.80
2008,02,23,11,05,6.90
2008,02,23,11,06,6.90
2008,02,23,11,07,6.90
2008,02,23,11,08,6.90
2008,02,23,11,09,6.90
2008,02,23,11,10,6.90
2008,02,23,11,11,6.90
2008,02,23,11,12,6.90
2008,02,23,11,13,6.90
2008,02,23,11,14,6.90
2008,02,23,11,15,6.90
2008,02,23,11,16,6.90
2008,02,23,11,17,6.90
2008,02,23,11,18,6.90
2008,02,23,11,19,6.90
2008,02,23,11,20,6.90
2008,02,23,11,21,6.90
2008,02,23,11,22,6.90
2008,02,23,11,23,7.00
2008,02,23,11,24,7.00
2008,02,23,11,25,7.00
2008,02,23,11,26,7.00
2008,02,23,11,27,7.00
2008,02,23,11,28,7.00
2008,02,23,11,29,7.00
2008,02,23,11,30,7.00
2008,02,23,11,31,7.10
2008,02,23,11,32,7.10
2008,02,23,11,33,7.10
2008,02,23,11,34,7.10
2008,02,23,11,35,7.10
2008,02,23,11,36,7.10
2008,02,23,11,37,7.10
2008,02,23,11,38,7.10
2008,02,23,11,39,7.20
2008,02,23,11,40,7.30
2008,02,23,11,41,7.30
2008,02,23,11,42,7.30
2008,02,23,11,43,7.40
2008,02,23,11,44,7.50
2008,02,23,11,45,7.60
2008,02,23,11,46,7.60
2008,02,23,11,47,7.70
2008,02,23,11,48,7.80
2008,02,23,11,49,7.80
2008,02,23,11,50,7.80
2008,02,23,11,51,7.90
2008,02,23,11,52,7.90
2008,02,23,11,53,7.90
2008,02,23,11,54,8.00
2008,02,23,11,55,8.00
2008,02,23,11,56,8.00
2008,02,23,11,57,8.00
2008,02,23,11,58,8.00
2008,02,23,11,59,8.00
2008,02,23,12,00,8.00
2008,02,23,12,01,8.00
2008,02,23,12,02,8.00
2008,02,23,12,03,8.00
2008,02,23,12,04,8.00
2008,02,23,12,05,8.00
2008,02,23,12,06,8.00
2008,02,23,12,07,8.10
2008,02,23,12,08,8.10
2008,02,23,12,09,8.10
2008,02,23,12,10,8.10
2008,02,23,12,11,8.10
2008,02,23,12,12,8.10
2008,02,23,12,13,8.00
2008,02,23,12,14,8.00
2008,02,23,12,15,8.00
2008,02,23,12,16,8.00
2008,02,23,12,17,8.10
2008,02,23,12,18,8.10
2008,02,23,12,19,8.20
2008,02,23,12,20,8.20
2008,02,23,12,21,8.20
2008,02,23,12,22,8.20
2008,02,23,12,23,8.20
2008,02,23,12,24,8.30
2008,02,23,12,25,8.30
2008,02,23,12,26,8.30
2008,02,23,12,27,8.40
2008,02,23,12,28,8.30
2008,02,23,12,29,8.30
2008,02,23,12,30,8.30
2008,02,23,12,31,8.30
2008,02,23,12,32,8.20
2008,02,23,12,33,8.20
2008,02,23,12,34,8.30
2008,02,23,12,35,8.30
2008,02,23,12,36,8.30
2008,02,23,12,37,8.30
2008,02,23,12,38,8.30
2008,02,23,12,39,8.30
2008,02,23,12,40,8.30
2008,02,23,12,41,8.20
2008,02,23,12,42,8.20
2008,02,23,12,43,8.20
2008,02,23,12,44,8.20
2008,02,23,12,45,8.20
2008,02,23,12,46,8.20
2008,02,23,12,47,8.20
2008,02,23,12,48,8.20
2008,02,23,12,49,8.20
2008,02,23,12,50,8.20
2008,02,23,12,51,8.20
2008,02,23,12,52,8.20
2008,02,23,12,53,8.20
2008,02,23,12,54,8.20
2008,02,23,12,55,8.20
2008,02,23,12,56,8.20
2008,02,23,12,57,8.20
2008,02,23,12,58,8.20
2008,02,23,12,59,8.20
2008,02,23,13,00,8.30
2008,02,23,13,01,8.30
2008,02,23,13,02,8.30
2008,02,23,13,03,8.40
2008,02,23,13,04,8.40
2008,02,23,13,05,8.50
2008,02,23,13,06,8.50
2008,02,23,13,07,8.50
2008,02,23,13,08,8.50
2008,02,23,13,09,8.50
2008,02,23,13,10,8.60
2008,02,23,13,11,8.70
2008,02,23,13,12,8.70
2008,02,23,13,13,8.70
2008,02,23,13,14,8.80
2008,02,23,13,15,8.80
2008,02,23,13,16,8.90
2008,02,23,13,17,8.90
2008,02,23,13,18,9.00
2008,02,23,13,19,9.00
2008,02,23,13,20,9.10
2008,02,23,13,21,9.10
2008,02,23,13,22,9.10
2008,02,23,13,23,9.20
2008,02,23,13,24,9.20
2008,02,23,13,25,9.20
2008,02,23,13,26,9.30
2008,02,23,13,27,9.40
2008,02,23,13,28,9.40
2008,02,23,13,29,9.50
2008,02,23,13,30,9.50
2008,02,23,13,31,9.50
2008,02,23,13,32,9.40
2008,02,23,13,33,9.20
2008,02,23,13,34,9.20
2008,02,23,13,35,9.20
2008,02,23,13,36,9.00
2008,02,23,13,37,8.90
2008,02,23,13,38,8.70
2008,02,23,13,39,8.70
2008,02,23,13,40,8.80
2008,02,23,13,41,8.90
2008,02,23,13,42,8.90
2008,02,23,13,43,9.00
2008,02,23,13,44,9.00
2008,02,23,13,45,9.00
2008,02,23,13,46,9.10
2008,02,23,13,47,9.10
2008,02,23,13,48,9.10
2008,02,23,13,49,9.10
2008,02,23,13,50,9.10
2008,02,23,13,51,9.10
2008,02,23,13,52,9.20
2008,02,23,13,53,9.20
2008,02,23,13,54,9.20
2008,02,23,13,55,9.20
2008,02,23,13,56,9.20
2008,02,23,13,57,9.20
2008,02,23,13,58,9.20
2008,02,23,13,59,9.20
2008,02,23,14,00,9.20
2008,02,23,14,01,9.20
2008,02,23,14,02,9.20
2008,02,23,14,03,9.20
2008,02,23,14,04,9.20
2008,02,23,14,05,9.20
2008,02,23,14,06,9.20
2008,02,23,14,07,9.20
2008,02,23,14,08,9.20
2008,02,23,14,09,9.20
2008,02,23,14,10,9.20
2008,02,23,14,11,9.30
2008,02,23,14,12,9.30
2008,02,23,14,13,9.30
2008,02,23,14,14,9.30
2008,02,23,14,15,9.30
2008,02,23,14,16,9.20
2008,02,23,14,17,9.20
2008,02,23,14,18,9.20
2008,02,23,14,19,9.20
2008,02,23,14,20,9.20
2008,02,23,14,21,9.20
2008,02,23,14,22,9.20
2008,02,23,14,23,9.20
2008,02,23,14,24,9.20
2008,02,23,14,25,9.20
2008,02,23,14,26,9.20
2008,02,23,14,27,9.30
2008,02,23,14,28,9.30
2008,02,23,14,29,9.30
2008,02,23,14,30,9.30
2008,02,23,14,31,9.60
2008,02,23,14,32,9.60
2008,02,23,14,33,9.60
2008,02,23,14,34,9.50
2008,02,23,14,35,9.50
2008,02,23,14,36,9.50
2008,02,23,14,37,9.50
2008,02,23,14,38,9.50
2008,02,23,14,39,9.60
2008,02,23,14,40,9.60
2008,02,23,14,41,9.70
2008,02,23,14,42,9.70
2008,02,23,14,43,9.70
2008,02,23,14,44,9.70
2008,02,23,14,45,9.70
2008,02,23,14,46,9.70
2008,02,23,14,47,9.70
2008,02,23,14,48,9.70
2008,02,23,14,49,9.70
2008,02,23,14,50,9.70
2008,02,23,14,51,9.70
2008,02,23,14,52,9.70
2008,02,23,14,53,9.60
2008,02,23,14,54,9.60
2008,02,23,14,55,9.60
2008,02,23,14,56,9.60
2008,02,23,14,57,9.50
2008,02,23,14,58,9.50
2008,02,23,14,59,9.50
2008,02,23,15,00,9.50
2008,02,23,15,01,9.50
2008,02,23,15,02,9.40
2008,02,23,15,03,9.40
2008,02,23,15,04,9.40
2008,02,23,15,05,9.40
2008,02,23,15,06,9.40
2008,02,23,15,07,9.40
2008,02,23,15,08,9.50
2008,02,23,15,09,9.50
2008,02,23,15,10,9.50
2008,02,23,15,11,9.50
2008,02,23,15,12,9.50
2008,02,23,15,13,9.50
2008,02,23,15,14,9.60
2008,02,23,15,15,9.60
2008,02,23,15,16,9.60
2008,02,23,15,17,9.70
2008,02,23,15,18,9.70
2008,02,23,15,19,9.70
2008,02,23,15,20,9.70
2008,02,23,15,21,9.60
2008,02,23,15,22,9.60
2008,02,23,15,23,9.70
2008,02,23,15,24,9.70
2008,02,23,15,25,9.70
2008,02,23,15,26,9.70
2008,02,23,15,27,9.70
2008,02,23,15,28,9.70
2008,02,23,15,29,9.70
2008,02,23,15,30,9.80
2008,02,23,15,31,9.80
2008,02,23,15,32,9.80
2008,02,23,15,33,9.80
2008,02,23,15,34,9.80
2008,02,23,15,35,9.80
2008,02,23,15,36,9.90
2008,02,23,15,37,9.90
2008,02,23,15,38,9.80
2008,02,23,15,39,9.80
2008,02,23,15,40,9.80
2008,02,23,15,41,9.80
2008,02,23,15,42,9.80
2008,02,23,15,43,9.80
2008,02,23,15,44,9.90
2008,02,23,15,45,9.90
2008,02,23,15,46,9.90
2008,02,23,15,47,9.90
2008,02,23,15,48,9.90
2008,02,23,15,49,9.90
2008,02,23,15,50,9.90
2008,02,23,15,51,9.90
2008,02,23,15,52,9.90
2008,02,23,15,53,9.90
2008,02,23,15,54,9.90
2008,02,23,15,55,9.90
2008,02,23,15,56,9.90
2008,02,23,15,57,9.80
2008,02,23,15,58,9.80
2008,02,23,15,59,9.80
2008,02,23,16,00,9.80
2008,02,23,16,01,9.90
2008,02,23,16,02,9.90
2008,02,23,16,03,9.90
2008,02,23,16,04,9.90
2008,02,23,16,05,9.90
2008,02,23,16,06,9.80
2008,02,23,16,07,9.80
2008,02,23,16,08,9.90
2008,02,23,16,09,9.90
2008,02,23,16,10,9.80
2008,02,23,16,11,9.80
2008,02,23,16,12,9.80
2008,02,23,16,13,9.80
2008,02,23,16,14,9.80
2008,02,23,16,15,9.80
2008,02,23,16,16,9.70
2008,02,23,16,17,9.70
2008,02,23,16,18,9.70
2008,02,23,16,19,9.70
2008,02,23,16,20,9.70
2008,02,23,16,21,9.70
2008,02,23,16,22,9.70
2008,02,23,16,23,9.70
2008,02,23,16,24,9.70
2008,02,23,16,25,9.70
2008,02,23,16,26,9.70
2008,02,23,16,27,9.70
2008,02,23,16,28,9.70
2008,02,23,16,29,9.70
2008,02,23,16,30,9.70
2008,02,23,16,31,9.60
2008,02,23,16,32,9.60
2008,02,23,16,33,9.60
2008,02,23,16,34,9.60
2008,02,23,16,35,9.60
2008,02,23,16,36,9.60
2008,02,23,16,37,9.60
2008,02,23,16,38,9.60
2008,02,23,16,39,9.50
2008,02,23,16,40,9.50
2008,02,23,16,41,9.50
2008,02,23,16,42,9.50
2008,02,23,16,43,9.40
2008,02,23,16,44,9.40
2008,02,23,16,45,9.40
2008,02,23,16,46,9.30
2008,02,23,16,47,9.30
2008,02,23,16,48,9.30
2008,02,23,16,49,9.30
2008,02,23,16,50,9.20
2008,02,23,16,51,9.20
2008,02,23,16,52,9.20
2008,02,23,16,53,9.20
2008,02,23,16,54,9.10
2008,02,23,16,55,9.10
2008,02,23,16,56,9.10
2008,02,23,16,57,9.00
2008,02,23,16,58,9.00
2008,02,23,16,59,9.00
2008,02,23,17,00,8.90
2008,02,23,17,01,8.90
2008,02,23,17,02,8.90
2008,02,23,17,03,8.90
2008,02,23,17,04,8.90
2008,02,23,17,05,8.80
2008,02,23,17,06,8.80
2008,02,23,17,07,8.80
2008,02,23,17,08,8.80
2008,02,23,17,09,8.70
2008,02,23,17,10,8.70
2008,02,23,17,11,8.70
2008,02,23,17,12,8.70
2008,02,23,17,13,8.70
2008,02,23,17,14,8.70
2008,02,23,17,15,8.70
2008,02,23,17,16,8.70
2008,02,23,17,17,8.70
2008,02,23,17,18,8.60
2008,02,23,17,19,8.60
2008,02,23,17,20,8.60
2008,02,23,17,21,8.60
2008,02,23,17,22,8.50
2008,02,23,17,23,8.50
2008,02,23,17,24,8.50
2008,02,23,17,25,8.40
2008,02,23,17,26,8.40
2008,02,23,17,27,8.40
2008,02,23,17,28,8.40
2008,02,23,17,29,8.30
2008,02,23,17,30,8.30
2008,02,23,17,31,8.30
2008,02,23,17,32,8.30
2008,02,23,17,33,8.20
2008,02,23,17,34,8.20
2008,02,23,17,35,8.20
2008,02,23,17,36,8.20
2008,02,23,17,37,8.20
2008,02,23,17,38,8.20
2008,02,23,17,39,8.20
2008,02,23,17,40,8.10
2008,02,23,17,41,8.10
2008,02,23,17,42,8.10
2008,02,23,17,43,8.10
2008,02,23,17,44,8.10
2008,02,23,17,45,8.00
2008,02,23,17,46,8.00
2008,02,23,17,47,8.00
2008,02,23,17,48,8.00
2008,02,23,17,49,8.00
2008,02,23,17,50,8.00
2008,02,23,17,51,7.90
2008,02,23,17,52,7.90
2008,02,23,17,53,7.90
2008,02,23,17,54,7.90
2008,02,23,17,55,7.80
2008,02,23,17,56,7.80
2008,02,23,17,57,7.80
2008,02,23,17,58,7.80
2008,02,23,17,59,7.80
2008,02,23,18,00,7.80
2008,02,23,18,01,7.70
2008,02,23,18,02,7.70
2008,02,23,18,03,7.70
2008,02,23,18,04,7.60
2008,02,23,18,05,7.60
2008,02,23,18,06,7.60